WetterOnline ( https://www.wetteronline.de )

Wetter aktuell Cuxhaven

Aktuelles Wetter: Cuxhaven (12m)

6-stündlich | Neueste Meldungen
Ortszeit Temperatur Wetter
Fr, 12.07. 14:00 20.5° C bewölkt
Fr, 12.07. 8:00 17.4° C bedeckt
Fr, 12.07. 2:00 15.7° C bewölkt
Do, 11.07. 20:00 18.5° C bewölkt
Do, 11.07. 14:00 21.5° C leicht bewölkt
Do, 11.07. 8:00 18.3° C wolkig
Do, 11.07. 2:00 17.0° C leicht bewölkt
Mi, 10.07. 20:00 21.4° C leichter Regen
Ortszeit Temperatur Wetter
Fr, 12.07. 15:30 21.1° C bewölkt
Fr, 12.07. 15:20 21.1° C leichter Regen
Fr, 12.07. 15:10 20.7° C bedeckt
Fr, 12.07. 15:00 20.5° C wolkig
Fr, 12.07. 14:50 20.5° C wolkig
Fr, 12.07. 14:40 20.7° C bedeckt
Fr, 12.07. 14:30 20.2° C wolkig
Fr, 12.07. 14:00 20.5° C bewölkt
Fr, 12.07. 13:30 19.8° C bewölkt
Fr, 12.07. 13:00 19.3° C wolkig
Fr, 12.07. 12:30 19.5° C wolkig
Ortszeit Relative Feuchte Sichtweite
Fr, 12.07. 14:00 67% 40 km
Fr, 12.07. 8:00 74% 45 km
Fr, 12.07. 2:00 88% 30 km
Do, 11.07. 20:00 77% 30 km
Do, 11.07. 14:00 60% 45 km
Do, 11.07. 8:00 76% 35 km
Do, 11.07. 2:00 89% 40 km
Mi, 10.07. 20:00 85% 30 km
Ortszeit Relative Feuchte Sichtweite
Fr, 12.07. 15:30 70% 30 km
Fr, 12.07. 15:20 70% -
Fr, 12.07. 15:10 72% -
Fr, 12.07. 15:00 70% 29 km
Fr, 12.07. 14:50 70% -
Fr, 12.07. 14:40 71% -
Fr, 12.07. 14:30 70% 45 km
Fr, 12.07. 14:00 67% 40 km
Fr, 12.07. 13:30 70% 40 km
Fr, 12.07. 13:00 68% 30 km
Fr, 12.07. 12:30 67% 30 km
Ortszeit Niederschlagsmenge Niederschlagsart
Fr, 12.07. 14:00 0.0 l/m2 in 6 Std. -
Fr, 12.07. 8:00 0.0 l/m2 in 12 Std. -
Fr, 12.07. 2:00 0.0 l/m2 in 6 Std. -
Do, 11.07. 20:00 0.1 l/m2 in 12 Std. Regen
Do, 11.07. 14:00 0.0 l/m2 in 6 Std. -
Do, 11.07. 8:00 0.1 l/m2 in 12 Std. -
Do, 11.07. 2:00 0.1 l/m2 in 6 Std. Regen
Mi, 10.07. 20:00 4 l/m2 in 12 Std. Regen
Ortszeit Niederschlagsmenge Niederschlagsart
Fr, 12.07. 15:30 <0.05 l/m2 in 30 Min Schneeregen
Fr, 12.07. 15:20 keine Meldung -
Fr, 12.07. 15:10 keine Meldung -
Fr, 12.07. 15:00 0.0 l/m2 in 1 Std. -
Fr, 12.07. 14:50 keine Meldung -
Fr, 12.07. 14:40 keine Meldung -
Fr, 12.07. 14:30 0.0 l/m2 in 30 Min -
Fr, 12.07. 14:00 0.0 l/m2 in 1 Std. -
Fr, 12.07. 13:30 0.0 l/m2 in 30 Min -
Fr, 12.07. 13:00 0.0 l/m2 in 1 Std. -
Fr, 12.07. 12:30 0.0 l/m2 in 30 Min -
Ortszeit Stärke Spitze Richtung
km/h Bft. km/h Grad Sektor
Fr, 12.07. 14:00 17 3 28 60° NO
Fr, 12.07. 8:00 4 1 14 350° N
Fr, 12.07. 2:00 7 2 22 290° W
Do, 11.07. 20:00 13 3 35 310° NW
Do, 11.07. 14:00 15 3 41 230° SW
Do, 11.07. 8:00 11 2 22 240° SW
Do, 11.07. 2:00 7 2 29 230° SW
Mi, 10.07. 20:00 13 3 31 260° W
Ortszeit Stärke Spitze Richtung
km/h Bft. km/h Grad Sektor
Fr, 12.07. 15:30 20 4 31 50° NO
Fr, 12.07. 15:20 20 4 - 50° NO
Fr, 12.07. 15:10 22 4 - 50° NO
Fr, 12.07. 15:00 18 3 29 50° NO
Fr, 12.07. 14:50 18 3 - 50° NO
Fr, 12.07. 14:40 18 3 - 50° NO
Fr, 12.07. 14:30 15 3 30 60° NO
Fr, 12.07. 14:00 17 3 28 60° NO
Fr, 12.07. 13:30 14 3 25 60° NO
Fr, 12.07. 13:00 13 3 22 50° NO
Fr, 12.07. 12:30 13 3 20 60° NO
Ortszeit Untergrenze Bedeckung Gattung
total tief tief mittel hoch
Fr, 12.07. 14:00 1500 m 8/8 4/8 - - -
Fr, 12.07. 8:00 690 m 8/8 8/8 - - -
Fr, 12.07. 2:00 810 m 8/8 4/8 - - -
Do, 11.07. 20:00 1470 m 7/8 7/8 - - -
Do, 11.07. 14:00 960 m 3/8 2/8 - - -
Do, 11.07. 8:00 5700 m 8/8 7/8 - - -
Do, 11.07. 2:00 7800 m 5/8 0/8 - - -
Mi, 10.07. 20:00 1020 m 8/8 8/8 - - -
Ortszeit Bedeckungsgrad in Achtel und Wolkenuntergrenze
Fr, 12.07. 15:30 5(2100m) 8(4500m) 8(5400m)
Fr, 12.07. 15:20 5(2100m) 8(4500m) 8(5400m)
Fr, 12.07. 15:10 8
Fr, 12.07. 15:00 2(1500m) 8(3300m) 8(6000m)
Fr, 12.07. 14:50 2(1500m) 8(3300m) 8(6000m)
Fr, 12.07. 14:40 8
Fr, 12.07. 14:30 2(1410m) 7(4200m) 8(4800m)
Fr, 12.07. 14:00 4(1500m) 8(4800m) 8(5700m)
Fr, 12.07. 13:30 7(2100m) 7(5100m) 8(5700m)
Fr, 12.07. 13:00 1(1500m) 3(2100m) 8(4200m)
Fr, 12.07. 12:30 1(750m) 8(4800m) 8(7200m)
Ortszeit Luftdruck NN (hPa) Tendenz (hPa in 3 Std.)
Fr, 12.07. 14:00 1012 - 2,6
Fr, 12.07. 8:00 1016 - 0,4
Fr, 12.07. 2:00 1017 + 0,1
Do, 11.07. 20:00 1017 + 0,3
Do, 11.07. 14:00 1016 + 0,3
Do, 11.07. 8:00 1016 + 0,1
Do, 11.07. 2:00 1016 - 0,3
Mi, 10.07. 20:00 1014 + 0,2
Ortszeit Luftdruck NN (hPa) Tendenz (hPa in 3 Std.)
Fr, 12.07. 15:30 1010 - 3,0
Fr, 12.07. 15:20 1010 keine Meldung
Fr, 12.07. 15:10 1010 keine Meldung
Fr, 12.07. 15:00 1011 - 2,9
Fr, 12.07. 14:50 1011 keine Meldung
Fr, 12.07. 14:40 1011 keine Meldung
Fr, 12.07. 14:30 1012 - 2,2
Fr, 12.07. 14:00 1012 - 2,6
Fr, 12.07. 13:30 1012 - 2,5
Fr, 12.07. 13:00 1013 - 1,8
Fr, 12.07. 12:30 1013 - 2,0
Ortszeit Schneehöhe (cm)
Fr, 12.07. 14:00 0
Fr, 12.07. 8:00 0
Fr, 12.07. 2:00 0
Do, 11.07. 20:00 0
Do, 11.07. 14:00 0
Do, 11.07. 8:00 0
Do, 11.07. 2:00 0
Mi, 10.07. 20:00 0
Ortszeit Schneehöhe (cm)
Fr, 12.07. 15:30 0
Fr, 12.07. 15:20 0
Fr, 12.07. 15:10 -
Fr, 12.07. 15:00 0
Fr, 12.07. 14:50 0
Fr, 12.07. 14:40 -
Fr, 12.07. 14:30 0
Fr, 12.07. 14:00 0
Fr, 12.07. 13:30 0
Fr, 12.07. 13:00 0
Fr, 12.07. 12:30 0
Link zu dieser Seite / Seite empfehlen

Das Wetter in ...